[[{"header":{"parameterUnit":"m.s-1","parameterCategory":1,"la1":30.2991,"la2":30.254,"lo1":-89.0895,"lo2":-89.0444,"dy":0.0017,"dx":0.0017,"nx":28,"ny":28,"refTime":"2025-06-15T09:00:00:Z","depth":0,"parameterNumber":2,"parameterNumberName":"U-component_of_WINDS"},"data":[0,0,0,0,0,0,0,0,0,0,0,0,0,0,0,0,0,0,0,0,0,0,0,0,0,0,0,0,0,0,0,0,0,0,0,0,0,0,0,0,0,0,0,0,0,0,0,0,0,0,0,0,0,0,0,0,0,0,1.4415,1.4415,0,1.4448,1.4448,1.4448,1.4355,1.4353,1.435,1.4347,1.4384,1.4387,1.4391,0,0,0,0,0,0,0,0,0,0,0,0,0,1.4275,1.4278,1.4415,1.4415,1.4416,1.4448,1.4448,1.4449,1.4356,1.4352,1.4349,1.4346,1.4382,1.4387,1.4391,0,0,0,0,0,0,0,0,0,0,0,0,0,1.4325,1.4279,1.4415,1.4373,1.437,1.4448,1.4448,1.4449,1.4357,1.4352,1.4348,1.4344,1.4381,1.4386,1.4392,1.4512,0,0,1.4408,1.4411,0,0,0,0,0,0,0,0,1.4322,1.433,1.4379,1.4376,1.4373,1.4393,1.4412,1.447,1.4358,1.4362,1.4347,1.4342,1.439,1.4395,1.441,1.4513,1.4515,1.4409,1.4412,1.4415,1.4416,0,0,0,0,0,0,0,1.4319,1.4328,1.4428,1.438,1.4376,1.4354,1.4356,1.4423,1.44,1.4361,1.4354,1.4359,1.4388,1.4405,1.4411,1.4516,1.4409,1.4414,1.4417,1.4419,1.4719,1.4723,0,0,0,0,0,0,1.432,1.4326,1.4427,1.4429,1.4336,1.436,1.4362,1.4391,1.4399,1.4396,1.4363,1.4355,1.4398,1.4404,1.4412,1.4553,1.4414,1.442,1.4423,1.4714,1.472,1.4725,0,0,0,0,0,0,1.4318,1.433,1.4426,1.4376,1.4386,1.4367,1.44,1.4394,1.4411,1.44,1.4396,1.4385,1.4395,1.4404,1.4487,1.4553,1.4422,1.4427,1.4709,1.4716,1.4722,1.4836,0,0,0,0,0,0,1.4314,1.433,1.4375,1.4377,1.4389,1.45,1.4404,1.4398,1.4421,1.441,1.442,1.4417,1.4392,1.448,1.4493,1.4558,1.4431,1.4703,1.4712,1.472,1.4826,1.4846,1.4863,0,0,0,0,0,1.4309,1.4406,1.4377,1.439,1.4445,1.4504,1.4511,1.4479,1.4426,1.4472,1.4465,1.4417,1.4543,1.4489,1.4503,1.4571,1.4698,1.4709,1.4719,1.4818,1.4842,1.4863,0,0,0,0,0,0,1.4413,1.4406,1.4374,1.4474,1.449,1.4488,1.4545,1.4506,1.4538,1.4528,1.4488,1.4491,1.4582,1.4584,1.4524,1.4687,1.4612,1.4626,1.4682,1.4705,1.4723,1.4721,1.4436,0,0,0,0,0,1.4447,1.4495,1.4487,1.4576,1.4586,1.4564,1.4589,1.4563,1.4579,1.4586,1.4584,1.4602,1.4646,1.4675,1.4715,1.4826,1.4827,1.488,1.4898,1.4913,1.4926,1.4985,1.5008,1.4759,1.4759,1.4759,0,0,1.4519,1.4521,1.4554,1.4597,1.4607,1.4658,1.4571,1.4629,1.4667,1.4595,1.4673,1.4673,1.469,1.4788,1.4831,1.4793,1.4994,1.4926,1.4939,1.4943,1.4998,1.5022,1.5043,1.4766,1.4765,1.4764,0,0,1.4676,1.4682,1.4757,1.4768,1.4784,1.4768,1.4787,1.4791,1.4788,1.4865,1.4812,1.4857,1.4933,1.4947,1.4965,1.5127,1.5085,1.5141,1.5237,1.5295,1.5315,1.5332,1.539,1.5411,1.5154,1.5154,1.5154,0,1.4763,1.4838,1.4801,1.4863,1.4884,1.4819,1.4895,1.4908,1.4936,1.4953,1.4909,1.5003,1.501,1.511,1.515,1.5166,1.5186,1.514,1.5315,1.5332,1.5347,1.5402,1.5424,1.5161,1.516,1.5159,1.5159,0,1.4945,1.4998,1.5057,1.5084,1.5112,1.5181,1.5155,1.5187,1.5159,1.5148,1.5229,1.5235,1.5274,1.5296,1.527,1.5393,1.5369,1.5321,1.5244,1.5378,1.5429,1.545,1.5171,1.5168,1.5166,1.5164,0,0,1.5169,1.5174,1.5197,1.5208,1.522,1.5261,1.5327,1.5364,1.5393,1.5415,1.5469,1.5535,1.549,1.551,1.5484,1.5536,1.5664,1.5481,1.5481,1.5515,1.5801,1.5837,1.5862,1.5636,1.564,1.5643,1.5799,0,1.5323,1.5435,1.5404,1.5517,1.5565,1.5505,1.5562,1.5577,1.5569,1.5609,1.5601,1.5648,1.5586,1.5597,1.5645,1.5638,1.5721,1.5627,1.5687,1.569,1.5685,1.5888,1.5927,1.6074,1.5819,1.5822,1.5825,0,1.5519,1.5547,1.5664,1.5668,1.5687,1.5739,1.5771,1.5811,1.5826,1.5816,1.5838,1.5803,1.5868,1.5791,1.5882,1.5818,1.5841,1.5842,1.5847,1.5851,1.5766,1.5899,1.612,1.6143,1.5856,1.5853,1.5851,0,1.567,1.5737,1.5816,1.5828,1.5834,1.5872,1.5877,1.5888,1.5912,1.5941,1.5956,1.5992,1.6012,1.6041,1.6017,1.5963,1.6111,1.6032,1.6106,1.6107,1.614,1.6138,1.6369,1.6155,1.6155,1.6154,1.6154,0,1.5846,1.592,1.5884,1.5933,1.6014,1.5978,1.606,1.6057,1.6067,1.6115,1.6065,1.6111,1.6075,1.6119,1.61,1.6177,1.6187,1.6182,1.6176,1.6186,1.6187,1.6201,1.619,1.616,1.6159,1.6158,1.6157,0,1.6029,1.6007,1.6089,1.6088,1.609,1.615,1.6149,1.6195,1.6183,1.6244,1.6256,1.6239,1.6287,1.6265,1.6316,1.6303,1.6403,1.6384,1.6398,1.6393,1.6468,1.6461,1.6715,1.6747,1.6513,1.6516,1.6517,0,1.6142,1.6198,1.6203,1.623,1.6238,1.6284,1.6308,1.6275,1.6303,1.6324,1.6367,1.6411,1.6444,1.6524,1.6516,1.6555,1.6535,1.6622,1.6541,1.655,1.6537,1.6534,1.6539,1.6638,1.6641,1.6643,1.6645,0,1.6346,1.6333,1.637,1.6403,1.6434,1.6459,1.648,1.6506,1.6473,1.6507,1.6555,1.6581,1.6632,1.6676,1.671,1.6715,1.6676,1.667,1.669,1.6701,1.6707,1.6704,1.6442,1.6665,1.6663,1.6661,1.666,1.666,1.6498,1.6544,1.6555,1.6598,1.661,1.663,1.6673,1.6666,1.6705,1.6744,1.6722,1.6778,1.6792,1.6833,1.6844,1.6888,1.6854,1.6882,1.6889,1.6896,1.6906,1.67,1.6894,1.6894,1.6893,1.6893,1.6892,0,1.6699,1.6702,1.6742,1.6773,1.6807,1.6765,1.6786,1.6817,1.6867,1.6883,1.6916,1.6972,1.7014,1.701,1.7049,1.7085,1.7068,1.7097,1.7094,1.7096,1.6934,1.6914,1.711,1.711,1.711,1.711,1.711,1.711,1.6807,1.6884,1.6872,1.6954,1.6957,1.7011,1.7027,1.7046,1.7058,1.7122,1.7157,1.7153,1.7161,1.72,1.7238,1.7235,1.7252,1.7288,1.7279,1.7129,1.7107,1.7086,1.7067,1.7292,1.7292,1.7436,1.7438,1.7439]},{"header":{"parameterUnit":"m.s-1","parameterCategory":1,"la1":30.2991,"la2":30.254,"lo1":-89.0895,"lo2":-89.0444,"dy":0.0017,"dx":0.0017,"nx":28,"ny":28,"refTime":"2025-06-15T09:00:00:Z","depth":0,"parameterNumber":3,"parameterNumberName":"V-component_of_WINDS"},"data":[0,0,0,0,0,0,0,0,0,0,0,0,0,0,0,0,0,0,0,0,0,0,0,0,0,0,0,0,0,0,0,0,0,0,0,0,0,0,0,0,0,0,0,0,0,0,0,0,0,0,0,0,0,0,0,0,0,0,0.565,0.565,0,0.5708,0.5709,0.5709,0.5622,0.5619,0.5616,0.5613,0.5675,0.5679,0.5684,0,0,0,0,0,0,0,0,0,0,0,0,0,0.5465,0.5468,0.565,0.565,0.5651,0.5708,0.5709,0.5709,0.5623,0.5619,0.5615,0.5612,0.5673,0.5679,0.5684,0,0,0,0,0,0,0,0,0,0,0,0,0,0.5536,0.547,0.5649,0.5615,0.5612,0.5708,0.5709,0.571,0.5624,0.5619,0.5614,0.561,0.5672,0.5678,0.5685,0.5818,0,0,0.5705,0.5708,0,0,0,0,0,0,0,0,0.5532,0.5543,0.5619,0.5617,0.5615,0.5653,0.5666,0.5746,0.5625,0.5619,0.5613,0.5608,0.5671,0.5678,0.5699,0.5821,0.5823,0.5706,0.571,0.5713,0.5715,0,0,0,0,0,0,0,0.5527,0.554,0.5673,0.562,0.5618,0.5597,0.5602,0.5681,0.567,0.5619,0.5613,0.5621,0.5669,0.5693,0.57,0.5824,0.5706,0.5712,0.5716,0.5718,0.6058,0.6063,0,0,0,0,0,0,0.5526,0.5537,0.5671,0.5674,0.5561,0.5604,0.5609,0.5645,0.5669,0.5668,0.5625,0.5617,0.5683,0.5692,0.5702,0.586,0.5713,0.5719,0.5723,0.6054,0.606,0.6065,0,0,0,0,0,0,0.5523,0.5539,0.5668,0.5604,0.5619,0.5612,0.5653,0.5649,0.5672,0.5673,0.5671,0.5651,0.568,0.5692,0.579,0.5861,0.5722,0.5728,0.6048,0.6055,0.6062,0.6177,0,0,0,0,0,0,0.5518,0.5538,0.5589,0.5606,0.5622,0.5756,0.5657,0.5653,0.5684,0.5674,0.5697,0.5697,0.5677,0.578,0.5796,0.5868,0.5734,0.6041,0.6051,0.606,0.6167,0.6188,0.6205,0,0,0,0,0,0.5512,0.5619,0.5592,0.5608,0.5685,0.576,0.577,0.5745,0.569,0.5741,0.5741,0.5696,0.585,0.5791,0.5808,0.5883,0.6037,0.6048,0.6059,0.6158,0.6184,0.6205,0,0,0,0,0,0,0.5612,0.5621,0.5591,0.5706,0.5733,0.5745,0.5808,0.5772,0.5815,0.5804,0.5772,0.5778,0.5883,0.5892,0.5826,0.6013,0.5934,0.5949,0.6004,0.6027,0.6046,0.6043,0.5739,0,0,0,0,0,0.5647,0.5706,0.5711,0.5813,0.5828,0.5816,0.5848,0.5826,0.5853,0.5864,0.5871,0.5899,0.5954,0.5991,0.6041,0.6167,0.6171,0.6227,0.6246,0.6261,0.6276,0.6344,0.6369,0.6102,0.6102,0.6102,0,0,0.5721,0.5733,0.5773,0.5833,0.5851,0.5915,0.5826,0.5896,0.5943,0.5874,0.5967,0.5974,0.6003,0.6115,0.6165,0.6126,0.635,0.6276,0.6288,0.6294,0.6358,0.6384,0.6406,0.611,0.6108,0.6107,0,0,0.5889,0.5903,0.599,0.601,0.6038,0.6029,0.605,0.6068,0.607,0.6162,0.6112,0.6167,0.6261,0.6284,0.6308,0.6484,0.6444,0.6501,0.6602,0.6669,0.669,0.6708,0.6773,0.6796,0.6514,0.6515,0.6515,0,0.5978,0.607,0.604,0.6114,0.6142,0.6082,0.617,0.6191,0.6234,0.6256,0.6211,0.6328,0.6343,0.6461,0.6504,0.6524,0.6548,0.6499,0.6689,0.6707,0.6724,0.6785,0.6809,0.6522,0.6521,0.652,0.652,0,0.6179,0.6244,0.6311,0.6354,0.639,0.6471,0.6453,0.6493,0.6468,0.6464,0.6559,0.6575,0.6627,0.6653,0.663,0.6768,0.6743,0.6694,0.6615,0.6757,0.6814,0.6837,0.6532,0.6529,0.6527,0.6525,0,0,0.6414,0.6438,0.6463,0.6482,0.6508,0.6558,0.6636,0.6687,0.6723,0.6754,0.682,0.6901,0.6855,0.6883,0.6861,0.692,0.706,0.6864,0.6864,0.6901,0.7215,0.7253,0.728,0.7032,0.7036,0.704,0.7213,0,0.6582,0.6717,0.6692,0.6823,0.6883,0.6826,0.6894,0.6918,0.6916,0.6967,0.6965,0.7024,0.6959,0.6975,0.703,0.7031,0.7123,0.7018,0.7094,0.7098,0.7092,0.731,0.735,0.7513,0.7235,0.7238,0.7241,0,0.6798,0.6837,0.6975,0.6991,0.7016,0.7077,0.7122,0.7171,0.7197,0.7191,0.7222,0.7189,0.7267,0.7185,0.7293,0.7222,0.7252,0.7257,0.7262,0.7271,0.718,0.7326,0.7564,0.759,0.7275,0.7273,0.727,0,0.6957,0.7044,0.7138,0.7156,0.7177,0.7222,0.7233,0.7254,0.7287,0.7326,0.7346,0.7394,0.7421,0.7459,0.744,0.7382,0.7552,0.7468,0.7551,0.7552,0.7592,0.759,0.784,0.7607,0.7607,0.7606,0.7606,0,0.715,0.7237,0.721,0.7269,0.7364,0.7334,0.743,0.7434,0.7453,0.7511,0.7464,0.752,0.749,0.7544,0.7529,0.7622,0.7634,0.7633,0.7628,0.7638,0.7639,0.7659,0.7648,0.7613,0.7611,0.761,0.7609,0,0.7345,0.7331,0.743,0.7442,0.7446,0.7517,0.7527,0.7582,0.7575,0.765,0.7666,0.7657,0.7717,0.7701,0.7768,0.7758,0.7875,0.7855,0.7867,0.7863,0.7948,0.7941,0.8221,0.8257,0.7999,0.8002,0.8004,0,0.747,0.7536,0.7555,0.759,0.7605,0.7662,0.7695,0.7667,0.7703,0.7737,0.7788,0.7844,0.7888,0.7987,0.7987,0.8038,0.802,0.8115,0.8027,0.8036,0.8024,0.8021,0.8028,0.8133,0.8136,0.8138,0.814,0,0.7694,0.7684,0.7732,0.7779,0.7819,0.7854,0.7885,0.7917,0.7891,0.7934,0.7995,0.8029,0.8097,0.8154,0.82,0.8211,0.8173,0.8167,0.819,0.8202,0.8207,0.8207,0.7917,0.8162,0.816,0.8158,0.8157,0.8156,0.786,0.7916,0.7938,0.7993,0.8013,0.8043,0.8096,0.8096,0.8146,0.8199,0.8178,0.8249,0.8273,0.8331,0.8348,0.8403,0.8368,0.8399,0.8408,0.8417,0.8428,0.8196,0.8411,0.8411,0.841,0.841,0.8409,0,0.8083,0.8094,0.8145,0.819,0.8234,0.8192,0.8224,0.8264,0.8327,0.8351,0.8395,0.8466,0.8521,0.8525,0.8576,0.862,0.8604,0.8635,0.8632,0.8636,0.8456,0.8433,0.8647,0.8647,0.8647,0.8647,0.8647,0.8647,0.8204,0.8297,0.8289,0.8392,0.8402,0.8471,0.8493,0.852,0.854,0.8621,0.8666,0.8668,0.8685,0.8737,0.8786,0.8785,0.8807,0.8846,0.8839,0.8672,0.8649,0.8626,0.8604,0.8851,0.8851,0.9014,0.9016,0.9017]}]]